Time,TemperatureF,DewpointF,PressureIn,WindDirection,WindDirectionDegrees,WindSpeedMPH,WindSpeedGustMPH,Humidity,HourlyPrecipIn,Conditions,Clouds,dailyrainin,SoftwareType,DateUTC
2013-01-20 00:02:00,36.0,26.0,29.97,NNW,340,13.0,24.0,68,0.00,,,0.00,,2013-01-20 06:02:00,
2013-01-20 00:12:00,36.0,26.0,29.97,NNW,340,13.0,24.0,68,0.00,,,0.00,,2013-01-20 06:12:00,
2013-01-20 00:22:00,34.0,25.0,29.98,North,360,8.0,18.0,69,0.00,,,0.00,,2013-01-20 06:22:00,
2013-01-20 00:33:00,32.0,22.0,30.00,West,273,7.0,27.0,65,0.00,,,0.00,,2013-01-20 06:33:00,
2013-01-20 00:42:00,32.0,22.0,30.00,West,273,7.0,27.0,65,0.00,,,0.00,,2013-01-20 06:42:00,
2013-01-20 00:53:00,32.0,22.0,30.00,West,273,7.0,27.0,65,0.00,,,0.00,,2013-01-20 06:53:00,
2013-01-20 01:02:00,30.0,19.0,30.02,North,5,7.0,26.0,62,0.00,,,0.00,,2013-01-20 07:02:00,
2013-01-20 01:12:00,30.0,19.0,30.02,North,5,7.0,26.0,62,0.00,,,0.00,,2013-01-20 07:12:00,
2013-01-20 01:22:00,30.0,19.0,30.02,North,5,7.0,26.0,62,0.00,,,0.00,,2013-01-20 07:22:00,
2013-01-20 01:32:00,29.0,16.0,30.04,NNE,22,8.0,19.0,58,0.00,,,0.00,,2013-01-20 07:32:00,
2013-01-20 01:42:00,29.0,16.0,30.04,NNE,22,8.0,19.0,58,0.00,,,0.00,,2013-01-20 07:42:00,
2013-01-20 01:52:00,28.0,17.0,30.06,NNE,28,6.0,19.0,62,0.00,,,0.00,,2013-01-20 07:52:00,
2013-01-20 02:02:00,27.0,16.0,30.07,NNW,327,8.0,23.0,62,0.00,,,0.00,,2013-01-20 08:02:00,
2013-01-20 02:12:00,27.0,16.0,30.07,NNW,327,8.0,23.0,62,0.00,,,0.00,,2013-01-20 08:12:00,
2013-01-20 02:22:00,26.0,15.0,30.09,WSW,244,7.0,16.0,62,0.00,,,0.00,,2013-01-20 08:22:00,
2013-01-20 02:32:00,25.0,13.0,30.10,North,5,6.0,14.0,61,0.00,,,0.00,,2013-01-20 08:32:00,
2013-01-20 02:42:00,25.0,13.0,30.10,North,5,6.0,14.0,61,0.00,,,0.00,,2013-01-20 08:42:00,
2013-01-20 02:52:00,24.0,12.0,30.11,NE,50,6.0,22.0,60,0.00,,,0.00,,2013-01-20 08:52:00,
2013-01-20 03:02:00,24.0,12.0,30.11,North,5,5.0,17.0,60,0.00,,,0.00,,2013-01-20 09:02:00,
2013-01-20 03:12:00,24.0,12.0,30.11,North,5,5.0,17.0,60,0.00,,,0.00,,2013-01-20 09:12:00,
2013-01-20 03:22:00,24.0,13.0,30.13,NNW,343,6.0,14.0,62,0.00,,,0.00,,2013-01-20 09:22:00,
2013-01-20 03:33:00,23.0,13.0,30.14,NNW,330,6.0,15.0,65,0.00,,,0.00,,2013-01-20 09:33:00,
2013-01-20 03:42:00,23.0,13.0,30.14,NNW,330,6.0,15.0,65,0.00,,,0.00,,2013-01-20 09:42:00,
2013-01-20 03:53:00,22.0,12.0,30.15,NNW,339,5.0,15.0,66,0.00,,,0.00,,2013-01-20 09:53:00,
2013-01-20 04:02:00,22.0,12.0,30.16,NNW,340,8.0,15.0,66,0.00,,,0.00,,2013-01-20 10:02:00,
2013-01-20 04:12:00,22.0,12.0,30.16,NNW,340,8.0,15.0,66,0.00,,,0.00,,2013-01-20 10:12:00,
2013-01-20 04:22:00,21.0,11.0,30.17,North,5,9.0,16.0,64,0.00,,,0.00,,2013-01-20 10:22:00,
2013-01-20 04:32:00,20.0,10.0,30.17,North,350,8.0,18.0,64,0.00,,,0.00,,2013-01-20 10:32:00,
2013-01-20 04:42:00,20.0,10.0,30.17,North,350,8.0,18.0,64,0.00,,,0.00,,2013-01-20 10:42:00,
2013-01-20 04:52:00,20.0,11.0,30.18,NNW,339,6.0,16.0,66,0.00,,,0.00,,2013-01-20 10:52:00,
2013-01-20 05:02:00,19.0,10.0,30.19,North,355,4.0,14.0,68,0.00,,,0.00,,2013-01-20 11:02:00,
2013-01-20 05:12:00,19.0,10.0,30.19,North,355,4.0,14.0,68,0.00,,,0.00,,2013-01-20 11:12:00,
2013-01-20 05:22:00,19.0,11.0,30.20,NNW,345,5.0,12.0,70,0.00,,,0.00,,2013-01-20 11:22:00,
2013-01-20 05:32:00,18.0,10.0,30.21,NNW,336,6.0,13.0,69,0.00,,,0.00,,2013-01-20 11:32:00,
2013-01-20 05:42:00,18.0,10.0,30.21,NNW,336,6.0,13.0,69,0.00,,,0.00,,2013-01-20 11:42:00,
2013-01-20 05:53:00,18.0,10.0,30.22,North,355,5.0,11.0,70,0.00,,,0.00,,2013-01-20 11:53:00,
2013-01-20 06:03:00,18.0,10.0,30.23,North,5,7.0,15.0,71,0.00,,,0.00,,2013-01-20 12:03:00,
2013-01-20 06:12:00,18.0,10.0,30.23,North,5,7.0,15.0,71,0.00,,,0.00,,2013-01-20 12:12:00,
2013-01-20 06:23:00,18.0,10.0,30.23,North,5,7.0,15.0,71,0.00,,,0.00,,2013-01-20 12:23:00,
2013-01-20 06:33:00,17.0,9.0,30.24,North,355,8.0,13.0,69,0.00,,,0.00,,2013-01-20 12:33:00,
2013-01-20 06:43:00,17.0,9.0,30.24,North,355,8.0,13.0,69,0.00,,,0.00,,2013-01-20 12:43:00,
2013-01-20 06:53:00,17.0,8.0,30.24,NNW,346,7.0,15.0,66,0.00,,,0.00,,2013-01-20 12:53:00,
2013-01-20 07:03:00,17.0,8.0,30.26,NNE,14,6.0,16.0,67,0.00,,,0.00,,2013-01-20 13:03:00,
2013-01-20 07:12:00,17.0,8.0,30.26,NNE,14,6.0,16.0,67,0.00,,,0.00,,2013-01-20 13:12:00,
2013-01-20 07:23:00,16.0,7.0,30.26,NNW,332,7.0,15.0,67,0.00,,,0.00,,2013-01-20 13:23:00,
2013-01-20 07:33:00,16.0,8.0,30.27,NNW,328,7.0,12.0,69,0.00,,,0.00,,2013-01-20 13:33:00,
2013-01-20 07:43:00,16.0,8.0,30.27,NNW,328,7.0,12.0,69,0.00,,,0.00,,2013-01-20 13:43:00,
2013-01-20 07:53:00,16.0,8.0,30.28,North,349,6.0,12.0,70,0.00,,,0.00,,2013-01-20 13:53:00,
2013-01-20 08:02:00,16.0,8.0,30.28,North,349,6.0,12.0,70,0.00,,,0.00,,2013-01-20 14:02:00,
2013-01-20 08:12:00,16.0,8.0,30.28,North,349,6.0,12.0,70,0.00,,,0.00,,2013-01-20 14:12:00,
2013-01-20 08:23:00,16.0,7.0,30.29,North,5,8.0,16.0,68,0.00,,,0.00,,2013-01-20 14:23:00,
2013-01-20 08:33:00,16.0,8.0,30.29,NNW,334,5.0,14.0,69,0.00,,,0.00,,2013-01-20 14:33:00,
2013-01-20 08:43:00,16.0,8.0,30.29,NNW,334,5.0,14.0,69,0.00,,,0.00,,2013-01-20 14:43:00,
2013-01-20 08:53:00,16.0,7.0,30.30,NNW,348,5.0,16.0,68,0.00,,,0.00,,2013-01-20 14:53:00,
2013-01-20 09:03:00,16.0,7.0,30.30,North,350,8.0,14.0,66,0.00,,,0.00,,2013-01-20 15:03:00,
2013-01-20 09:12:00,16.0,7.0,30.30,North,350,8.0,14.0,66,0.00,,,0.00,,2013-01-20 15:12:00,
2013-01-20 09:23:00,17.0,8.0,30.30,NW,320,9.0,14.0,66,0.00,,,0.00,,2013-01-20 15:23:00,
2013-01-20 09:33:00,17.0,8.0,30.31,North,355,6.0,11.0,67,0.00,,,0.00,,2013-01-20 15:33:00,
2013-01-20 09:42:00,17.0,8.0,30.31,North,355,6.0,11.0,67,0.00,,,0.00,,2013-01-20 15:42:00,
2013-01-20 09:53:00,18.0,9.0,30.32,NNW,340,6.0,13.0,67,0.00,,,0.00,,2013-01-20 15:53:00,
2013-01-20 10:03:00,18.0,8.0,30.32,North,360,7.0,11.0,65,0.00,,,0.00,,2013-01-20 16:03:00,
2013-01-20 10:12:00,18.0,8.0,30.32,North,360,7.0,11.0,65,0.00,,,0.00,,2013-01-20 16:12:00,
2013-01-20 10:23:00,18.0,8.0,30.32,NW,320,7.0,13.0,64,0.00,,,0.00,,2013-01-20 16:23:00,
2013-01-20 10:33:00,19.0,9.0,30.32,NNW,332,4.0,11.0,64,0.00,,,0.00,,2013-01-20 16:33:00,
2013-01-20 10:43:00,19.0,9.0,30.32,NNW,332,4.0,11.0,64,0.00,,,0.00,,2013-01-20 16:43:00,
2013-01-20 10:53:00,20.0,10.0,30.32,NW,317,4.0,11.0,64,0.00,,,0.00,,2013-01-20 16:53:00,
2013-01-20 11:03:00,20.0,9.0,30.31,North,5,4.0,11.0,62,0.00,,,0.00,,2013-01-20 17:03:00,
2013-01-20 11:12:00,20.0,9.0,30.31,North,5,4.0,11.0,62,0.00,,,0.00,,2013-01-20 17:12:00,
2013-01-20 11:22:00,21.0,10.0,30.30,West,281,4.0,10.0,61,0.00,,,0.00,,2013-01-20 17:22:00,
2013-01-20 11:33:00,21.0,10.0,30.30,West,281,4.0,10.0,61,0.00,,,0.00,,2013-01-20 17:33:00,
2013-01-20 11:42:00,21.0,10.0,30.30,West,281,4.0,10.0,61,0.00,,,0.00,,2013-01-20 17:42:00,
2013-01-20 11:53:00,22.0,10.0,30.29,WNW,302,3.0,8.0,58,0.00,,,0.00,,2013-01-20 17:53:00,
2013-01-20 12:03:00,22.0,10.0,30.30,WNW,296,5.0,13.0,59,0.00,,,0.00,,2013-01-20 18:03:00,
2013-01-20 12:13:00,22.0,10.0,30.30,WNW,296,5.0,13.0,59,0.00,,,0.00,,2013-01-20 18:13:00,
2013-01-20 12:23:00,22.0,10.0,30.30,NNW,332,7.0,11.0,58,0.00,,,0.00,,2013-01-20 18:23:00,
2013-01-20 12:33:00,22.0,10.0,30.28,NNW,340,5.0,10.0,58,0.00,,,0.00,,2013-01-20 18:33:00,
2013-01-20 12:43:00,22.0,10.0,30.28,NNW,340,5.0,10.0,58,0.00,,,0.00,,2013-01-20 18:43:00,
2013-01-20 12:53:00,22.0,10.0,30.28,NW,309,6.0,12.0,59,0.00,,,0.00,,2013-01-20 18:53:00,
2013-01-20 13:02:00,23.0,11.0,30.28,North,9,5.0,11.0,59,0.00,,,0.00,,2013-01-20 19:02:00,
2013-01-20 13:12:00,23.0,11.0,30.28,North,9,5.0,11.0,59,0.00,,,0.00,,2013-01-20 19:12:00,
2013-01-20 13:22:00,23.0,10.0,30.27,NW,325,8.0,13.0,57,0.00,,,0.00,,2013-01-20 19:22:00,
2013-01-20 13:33:00,23.0,10.0,30.28,North,349,6.0,12.0,58,0.00,,,0.00,,2013-01-20 19:33:00,
2013-01-20 13:43:00,23.0,10.0,30.28,North,349,6.0,12.0,58,0.00,,,0.00,,2013-01-20 19:43:00,
2013-01-20 13:52:00,24.0,11.0,30.28,NW,323,5.0,12.0,56,0.00,,,0.00,,2013-01-20 19:52:00,
2013-01-20 14:03:00,23.0,10.0,30.28,North,360,6.0,10.0,57,0.00,,,0.00,,2013-01-20 20:03:00,
2013-01-20 14:12:00,23.0,10.0,30.28,North,360,6.0,10.0,57,0.00,,,0.00,,2013-01-20 20:12:00,
2013-01-20 14:22:00,23.0,10.0,30.28,NW,304,5.0,9.0,58,0.00,,,0.00,,2013-01-20 20:22:00,
2013-01-20 14:33:00,23.0,11.0,30.28,NW,306,3.0,8.0,59,0.00,,,0.00,,2013-01-20 20:33:00,
2013-01-20 14:42:00,23.0,11.0,30.28,NW,306,3.0,8.0,59,0.00,,,0.00,,2013-01-20 20:42:00,
2013-01-20 14:53:00,23.0,11.0,30.27,NW,326,3.0,10.0,59,0.00,,,0.00,,2013-01-20 20:53:00,
2013-01-20 15:03:00,22.0,9.0,30.28,North,9,6.0,11.0,57,0.00,,,0.00,,2013-01-20 21:03:00,
2013-01-20 15:13:00,22.0,9.0,30.28,North,9,6.0,11.0,57,0.00,,,0.00,,2013-01-20 21:13:00,
2013-01-20 15:23:00,22.0,10.0,30.28,NNW,344,6.0,13.0,58,0.00,,,0.00,,2013-01-20 21:23:00,
2013-01-20 15:33:00,22.0,10.0,30.28,NNW,332,3.0,8.0,59,0.00,,,0.00,,2013-01-20 21:33:00,
2013-01-20 15:43:00,22.0,10.0,30.28,NNW,332,3.0,8.0,59,0.00,,,0.00,,2013-01-20 21:43:00,
2013-01-20 15:52:00,22.0,10.0,30.29,NNW,335,5.0,12.0,60,0.00,,,0.00,,2013-01-20 21:52:00,
2013-01-20 16:03:00,22.0,10.0,30.28,NNW,344,4.0,8.0,60,0.00,,,0.00,,2013-01-20 22:03:00,
2013-01-20 16:12:00,22.0,10.0,30.28,NNW,344,4.0,8.0,60,0.00,,,0.00,,2013-01-20 22:12:00,
2013-01-20 16:22:00,22.0,11.0,30.29,NW,323,2.0,7.0,61,0.00,,,0.00,,2013-01-20 22:22:00,
2013-01-20 16:33:00,22.0,11.0,30.29,North,360,4.0,10.0,61,0.00,,,0.00,,2013-01-20 22:33:00,
2013-01-20 16:43:00,22.0,11.0,30.29,North,360,4.0,10.0,61,0.00,,,0.00,,2013-01-20 22:43:00,
2013-01-20 16:52:00,21.0,10.0,30.29,WSW,257,2.0,8.0,61,0.00,,,0.00,,2013-01-20 22:52:00,
2013-01-20 17:03:00,21.0,9.0,30.29,NW,316,3.0,7.0,60,0.00,,,0.00,,2013-01-20 23:03:00,
2013-01-20 17:13:00,21.0,9.0,30.29,NW,316,3.0,7.0,60,0.00,,,0.00,,2013-01-20 23:13:00,
2013-01-20 17:23:00,21.0,9.0,30.29,North,5,3.0,9.0,60,0.00,,,0.00,,2013-01-20 23:23:00,
2013-01-20 17:33:00,21.0,9.0,30.29,North,5,3.0,9.0,60,0.00,,,0.00,,2013-01-20 23:33:00,
2013-01-20 17:43:00,21.0,9.0,30.29,North,5,3.0,9.0,60,0.00,,,0.00,,2013-01-20 23:43:00,
2013-01-20 17:52:00,21.0,10.0,30.29,NNW,339,1.0,6.0,63,0.00,,,0.00,,2013-01-20 23:52:00,
2013-01-20 18:03:00,21.0,10.0,30.30,NNW,336,4.0,9.0,62,0.00,,,0.00,,2013-01-21 00:03:00,
2013-01-20 18:13:00,21.0,10.0,30.30,NNW,336,4.0,9.0,62,0.00,,,0.00,,2013-01-21 00:13:00,
2013-01-20 18:23:00,20.0,9.0,30.30,WNW,296,3.0,8.0,61,0.00,,,0.00,,2013-01-21 00:23:00,
2013-01-20 18:33:00,20.0,9.0,30.30,NNW,332,3.0,7.0,62,0.00,,,0.00,,2013-01-21 00:33:00,
2013-01-20 18:43:00,20.0,9.0,30.30,NNW,332,3.0,7.0,62,0.00,,,0.00,,2013-01-21 00:43:00,
2013-01-20 18:53:00,20.0,9.0,30.30,North,5,3.0,9.0,62,0.00,,,0.00,,2013-01-21 00:53:00,
2013-01-20 19:03:00,20.0,9.0,30.30,North,360,2.0,8.0,62,0.00,,,0.00,,2013-01-21 01:03:00,
2013-01-20 19:13:00,20.0,9.0,30.30,North,360,2.0,8.0,62,0.00,,,0.00,,2013-01-21 01:13:00,
2013-01-20 19:22:00,20.0,9.0,30.29,WNW,298,2.0,8.0,63,0.00,,,0.00,,2013-01-21 01:22:00,
2013-01-20 19:33:00,20.0,9.0,30.29,WNW,298,2.0,8.0,63,0.00,,,0.00,,2013-01-21 01:33:00,
2013-01-20 19:43:00,20.0,9.0,30.29,WNW,298,2.0,8.0,63,0.00,,,0.00,,2013-01-21 01:43:00,
2013-01-20 19:52:00,20.0,9.0,30.29,NNW,345,4.0,8.0,63,0.00,,,0.00,,2013-01-21 01:52:00,
2013-01-20 20:03:00,20.0,9.0,30.29,NNW,345,4.0,8.0,63,0.00,,,0.00,,2013-01-21 02:03:00,
2013-01-20 20:12:00,20.0,9.0,30.29,NNW,345,4.0,8.0,63,0.00,,,0.00,,2013-01-21 02:12:00,
2013-01-20 20:23:00,20.0,9.0,30.29,NNW,345,4.0,8.0,63,0.00,,,0.00,,2013-01-21 02:23:00,
2013-01-20 20:33:00,19.0,9.0,30.28,North,5,4.0,8.0,65,0.00,,,0.00,,2013-01-21 02:33:00,
2013-01-20 20:43:00,19.0,9.0,30.28,North,5,4.0,8.0,65,0.00,,,0.00,,2013-01-21 02:43:00,
2013-01-20 20:53:00,19.0,10.0,30.28,North,355,4.0,8.0,66,0.00,,,0.00,,2013-01-21 02:53:00,
2013-01-20 21:03:00,19.0,10.0,30.28,North,355,4.0,8.0,66,0.00,,,0.00,,2013-01-21 03:03:00,
2013-01-20 21:13:00,19.0,10.0,30.28,North,355,4.0,8.0,66,0.00,,,0.00,,2013-01-21 03:13:00,
2013-01-20 21:23:00,19.0,11.0,30.28,NNW,329,3.0,7.0,70,0.00,,,0.00,,2013-01-21 03:23:00,
2013-01-20 21:33:00,19.0,11.0,30.28,NW,315,3.0,9.0,72,0.00,,,0.00,,2013-01-21 03:33:00,
2013-01-20 21:43:00,19.0,11.0,30.28,NW,315,3.0,9.0,72,0.00,,,0.00,,2013-01-21 03:43:00,
2013-01-20 21:53:00,19.0,11.0,30.27,North,11,4.0,9.0,72,0.00,,,0.00,,2013-01-21 03:53:00,
2013-01-20 22:03:00,19.0,11.0,30.27,WNW,287,2.0,6.0,69,0.00,,,0.00,,2013-01-21 04:03:00,
2013-01-20 22:12:00,19.0,11.0,30.27,WNW,287,2.0,6.0,69,0.00,,,0.00,,2013-01-21 04:12:00,
2013-01-20 22:23:00,19.0,11.0,30.27,WNW,287,2.0,6.0,69,0.00,,,0.00,,2013-01-21 04:23:00,
2013-01-20 22:32:00,18.0,10.0,30.27,WNW,302,2.0,7.0,69,0.00,,,0.00,,2013-01-21 04:32:00,
2013-01-20 22:42:00,18.0,10.0,30.27,WNW,302,2.0,7.0,69,0.00,,,0.00,,2013-01-21 04:42:00,
2013-01-20 22:52:00,18.0,10.0,30.27,NW,318,4.0,8.0,71,0.00,,,0.00,,2013-01-21 04:52:00,
2013-01-20 23:03:00,18.0,11.0,30.26,WNW,303,2.0,6.0,72,0.00,,,0.00,,2013-01-21 05:03:00,
2013-01-20 23:12:00,18.0,11.0,30.26,WNW,303,2.0,6.0,72,0.00,,,0.00,,2013-01-21 05:12:00,
2013-01-20 23:22:00,18.0,11.0,30.26,NW,325,3.0,6.0,72,0.00,,,0.00,,2013-01-21 05:22:00,
2013-01-20 23:34:00,18.0,11.0,30.26,WNW,292,2.0,6.0,72,0.00,,,0.00,,2013-01-21 05:34:00,
2013-01-20 23:42:00,18.0,11.0,30.26,WNW,292,2.0,6.0,72,0.00,,,0.00,,2013-01-21 05:42:00,
2013-01-20 23:52:00,18.0,11.0,30.26,NW,307,3.0,8.0,72,0.00,,,0.00,,2013-01-21 05:52:00,